Flag for Switzerland Weather past 2 weeks in Yverdon-les-Bains, Vaud, Switzerland

Now
34 °F

Chilly.


Feels Like: 25 °F
Forecast: 26 / 34 °F
Wind: 14 mph from Southwest

Location: Payerne

Current Time: Dec 27, 2014 at 11:50:58 AM

Latest Report: Dec 27, 2014 at 11:00 AM


Visibility: N/A

Pressure: 29.71 "Hg

Humidity: 93%

Dew point: 32 °F

Location of Yverdon-les-BainsLocation

Historic Weather in Yverdon-les-Bains — Graph

°F

Yverdon-les-Bains temperature yesterday

Maximum temperature yesterday: 41 °F (at 3:00 PM)
Minimum temperature yesterday: 29 °F (at 11:00 PM)
Average temperature yesterday: 35 °F

Past Weeks' High & Low Weather Summary

 TemperatureHumidityPressure
High56 °F (Dec 19, 2:00 PM)100% (Dec 16, 3:00 AM)30.62 "Hg (Dec 16, 3:00 AM)
Low28 °F (Dec 22, 8:00 AM)48% (Dec 12, 3:00 PM)29.70 "Hg (Dec 27, 10:00 AM)
Average41 °F80%30.24 "Hg
* Reported Dec 12 10:00 AM — Dec 27 10:00 AM, Yverdon-les-Bains, Weather by CustomWeather, © 2014

Note: Actual official high and low records may vary slightly from our data, if they occured in-between our weather recording intervals... More about our weather records

Advertising

Yverdon-les-Bains weather history for previous 24 hours

 ConditionsComfort  
Time TempWeatherWind HumidityBarometerVisibility
10:00 AM
Dec 27
35 °FSnow. Low clouds.14 mph91%29.70 "Hg0 mi
9:00 AM33 °FChilly.12 mph96%29.76 "HgN/A
8:00 AM33 °FChilly.8 mph95%29.81 "HgN/A
7:00 AM33 °FSnow. Low clouds.7 mph96%29.86 "Hg0 mi
6:00 AM32 °FChilly.7 mph96%29.93 "HgN/A
5:00 AM32 °FChilly.7 mph97%30.01 "HgN/A
4:00 AM33 °FChilly.7 mph85%30.08 "HgN/A
3:00 AM32 °FChilly.7 mph79%30.13 "HgN/A
2:00 AM31 °FChilly.3 mph81%30.18 "HgN/A
1:00 AM29 °FPassing clouds.5 mph86%30.23 "Hg14 mi
12:00 AM28 °FChilly.2 mph89%30.27 "HgN/A
11:00 PM
Dec 26
29 °FChilly.3 mph86%30.32 "HgN/A
9:00 PM31 °FChilly.3 mph85%30.38 "HgN/A
8:00 PM31 °FChilly.2 mph88%30.40 "HgN/A
7:00 PM32 °FOvercast.1 mph83%30.40 "Hg16 mi
6:00 PM33 °FChilly.2 mph78%30.41 "HgN/A
5:00 PM35 °FChilly.2 mph72%30.42 "HgN/A
4:00 PM38 °FChilly.6 mph64%30.42 "HgN/A
3:00 PM41 °FQuite cool.5 mph53%30.41 "HgN/A
2:00 PM40 °FChilly.2 mph49%30.42 "HgN/A
1:00 PM40 °FScattered clouds.3 mph52%30.44 "Hg17 mi
12:00 PM40 °FChilly.1 mph59%30.47 "HgN/A
11:00 AM37 °FChilly.3 mph77%30.50 "HgN/A
Weather by CustomWeather, © 2014

See weather overviewHow to use our weather pages